Location: Skalnate Pleso
(49.1889°N, 20.2450°E)
Time: 02:38:56
(UTC+01:00)

Cosmos 1269 Rocket - Pass Details

Date: 19 November 2019
Orbit: 772 x 779 km, 74.1° (Epoch: 13 December)

Event Time Altitude Azimuth Distance (km) Brightness Sun altitude
Exits shadow 05:13:05 - 340° (NNW) 2,772 6.6 -16.3°
Reaches altitude 10° 05:14:12 10° 342° (NNW) 2,342 6.2 -16.2°
Maximum altitude 05:19:29 63° 63° (ENE) 867 4.5 -15.3°
Drops below altitude 10° 05:24:44 10° 145° (SE) 2,322 7.2 -14.5°
Sets 05:27:07 0° 149° (SSE) 3,244 8.0 -14.1°
